Regional Weather Roundup
Issued by NWS

Home | Current Version | Previous Version | Graphics & Text | Print | Product List | Glossary On
Versions: 1 2 3 4 5 6 7 8 9 10 11 12 13 14 15 16 17 18 19 20 21 22 23 24 25 26 27 28 29 30 31 32 33 34 35 36 37 38 39 40 41 42 43 44 45 46 47 48 49
000
ASUS43 KDMX 160107
RWRIA

WEATHER ROUNDUP FOR IOWA
NATIONAL WEATHER SERVICE DES MOINES IA
800 PM CDT MON SEP 15 2014

NOTE: "FAIR" INDICATES FEW OR NO CLOUDS BELOW 12,000 FEET WITH NO
SIGNIFICANT WEATHER AND/OR OBSTRUCTIONS TO VISIBILITY.

* - THESE STATIONS ARE NOT NWS STATIONS...THUS NOT UNDER NWS
QUALITY CONTROL.  THEY ALSO DO NOT REPORT WEATHER SUCH
AS PRECIPITATION OR FOG.

IAZ001>003-012>014-020>022-031>034-043>046-160200-
   NORTHWEST IOWA

CITY           SKY/WX    TMP DP  RH WIND       PRES   REMARKS
CARROLL *      CLEAR     48  46  93 W3        30.23R
CHEROKEE *     CLEAR     50  46  87 CALM      30.23S
DENISON *      CLEAR     52  46  82 CALM      30.22S
LE MARS *      CLEAR     52  48  87 CALM      30.24S
ORANGE CITY *  CLEAR     54  45  71 CALM      30.24R
SHELDON *      CLEAR     50  46  87 CALM      30.22S
SIOUX CITY     CLEAR     53  45  74 CALM      30.24S
SPENCER        CLEAR     52  43  71 CALM      30.23S
STORM LAKE *   CLEAR     50  46  87 CALM      30.23S
$$

IAZ055>058-069>071-079>083-090>094-160200-
   SOUTHWEST IOWA

CITY           SKY/WX    TMP DP  RH WIND       PRES   REMARKS
ATLANTIC *     PTCLDY    54  48  82 CALM      30.23S
AUDUBON *      PTCLDY    54  48  82 CALM      30.25R
CLARINDA *     CLEAR     54  48  82 N3        30.25R
COUNCIL BLFS * PTCLDY    55  50  82 NE3       30.23S
CRESTON *      CLEAR     54  48  82 N5        30.23S
HARLAN  *      MOCLDY    54  50  87 CALM      30.27S
LAMONI         CLOUDY    57  48  72 N9        30.21S
SHENANDOAH *   CLEAR     52  46  82 N5        30.24S
$$

IAZ047>049-059>061-072>074-084-160200-
   CENTRAL IOWA

CITY           SKY/WX    TMP DP  RH WIND       PRES   REMARKS
AMES           CLEAR     51  46  83 CALM      30.22R
ANKENY *       CLEAR     54  46  76 CALM      30.22R
CHARITON *     PTCLDY    54  50  87 N5        30.22R
DES MOINES     PTCLDY    58  46  64 N6        30.22R
GRINNELL*      CLEAR     52  46  82 NW3       30.22R
KNOXVILLE *    PTCLDY    52  48  87 NW5       30.20R
MARSHALLTOWN   CLEAR     51  46  83 N6        30.21R
PELLA *        MOCLDY    54  50  87 CALM      30.22S
PERRY *        MOCLDY    52  50  93 CALM      30.23R
$$

IAZ004>006-015-016-023>025-035-036-160200-
   NORTH CENTRAL IOWA

CITY           SKY/WX    TMP DP  RH WIND       PRES   REMARKS
ALGONA *       CLEAR     54  43  66 NW5       30.23S
CLARION *        N/A     52  45  76 N5        30.22S
ESTHERVILLE    CLEAR     48  43  82 CALM      30.22S
FORT DODGE *   CLEAR     52  43  71 CALM      30.23S
MASON CITY     PTCLDY    49  43  80 NW3       30.23R
FOREST CITY *  CLEAR     46  45  93 CALM      30.22R
IOWA FALLS *     N/A     50  45  81 CALM      30.23R
$$

IAZ007>011-017>019-026>030-037>042-050>054-066-160200-
   NORTHEAST IOWA

CITY           SKY/WX    TMP DP  RH WIND       PRES   REMARKS
CEDAR RAPIDS   CLEAR     52  47  83 N8        30.19R
CHARLES CITY * CLEAR     50  46  87 NW5       30.22R
CLINTON *      PTCLDY    50  46  87 N7        30.20S
DECORAH *      PTCLDY    52  45  76 CALM      30.19R
DUBUQUE        CLEAR     47  45  93 NW5       30.19R
MONTICELLO *   CLEAR     50  48  93 CALM      30.19R
OELWEIN *      CLOUDY    54  48  82 NW3       30.21R
WATERLOO       PTCLDY    53  44  71 W3        30.20R
$$

IAZ064-065-067-068-078-160200-
   EAST CENTRAL IOWA

CITY           SKY/WX    TMP DP  RH WIND       PRES   REMARKS
DAVENPORT      MOCLDY    53  49  86 CALM      30.19R
IOWA CITY      CLEAR     56  48  74 N8        30.20R
MT. PLEASANT * CLOUDY    57  48  72 N7        30.20R
MUSCATINE *    CLOUDY    57  50  77 N3        30.19R
QUAD CITIES    CLEAR     55  48  77 N5        30.18R
$$

IAZ062-063-075>077-085>089-095>099-160200-
   SOUTHEAST IOWA

CITY           SKY/WX    TMP DP  RH WIND       PRES   REMARKS
BURLINGTON     CLOUDY    58  52  80 N9        30.18R
FAIRFIELD *    CLOUDY    57  50  77 CALM      30.20R
FORT MADISON * CLOUDY    61  54  77 N8        30.19R
KEOKUK *       CLOUDY    59  54  82 N10G17    30.16R
OSKALOOSA *      N/A     52  48  87 N3        30.21R
CENTERVILLE *  CLOUDY    57  50  77 N6        30.22R
OTTUMWA        PTCLDY    54  49  83 N3        30.20R
WASHINGTON *   CLOUDY    57  52  82 N3        30.19R
$$

ABBREVIATIONS USED IN REMARKS
   TC - TEMPERATURES IN CELSIUS
  WCI - WIND CHILL INDEX
   HX - HEAT INDEX
  VSB - VISIBILITY
$$




USA.gov is the U.S. government's official web portal to all federal, state and local government web resources and services.